User: anonymous   Login
Location: Unspecified
(0.0000°N, 0.0000°E)
Time: 08:08:05
(UTC+00:00)
Language:

N. Korean satellite - Orbit

View from above orbital plane
View from above orbital plane
View from above satellite
View from above satellite

Ground track
Ground track

The orbit data is extracted from the following two-line orbital elements,

1 39026U 12072A   19345.75915759 +.00000575 +00000-0 +23141-4 0  9994
2 39026 097.2158 343.2970 0037225 192.7300 167.3004 15.28228854388424
Epoch (UTC): 11 December 2019 18:13:11
Eccentricity: 0.0037225
inclination: 97.2158°
perigee height: 455 km
apogee height: 506 km
right ascension of ascending node: 343.2970°
argument of perigee: 192.7300°
revolutions per day: 15.28228854
mean anomaly at epoch: 167.3004°
orbit number at epoch: 38842

The dashed part of the orbit path shows where the satellite is in the earth's shadow,  

DLR